Skip Page Navigation
NASA JPL Caltech
NASA Logo - Jet Propulsion Laboratory + View the NASA Portal
+ Near-Earth Object (NEO) Program
Search JPL
JPL Home Earth Solar System Stars & Galaxies Technology
JPL Solar System Dynamics
BODIES ORBITS EPHEMERIDES TOOLS PHYSICAL DATA DISCOVERY FAQ SITE MAP
JPL Small-Body Database Browser
Search: [ help ]  
11065 (1991 XE2)
Classification: Main-belt Asteroid          SPK-ID: 2011065
Ephemeris | Orbit Diagram | Orbital Elements | Physical Parameters | Discovery Circumstances | Close-Approach Data ]

[ show orbit diagram ]
Orbital Elements at Epoch 2457400.5 (2016-Jan-13.0) TDB
Reference: JPL 15 (heliocentric ecliptic J2000)
 Element Value Uncertainty (1-sigma)   Units 
e .1691935212985412 7.3256e-08  
a 2.786257679917933 2.0918e-08 au
q 2.314840931807514 2.0285e-07 au
i 9.912636243552269 7.6332e-06 deg
node 66.0963546922523 3.2548e-05 deg
peri 293.8369064008552 3.8712e-05 deg
M 119.6942282422652 2.0272e-05 deg
tp 2456835.691722568348
(2014-Jun-27.19172257)
9.5847e-05 JED
period 1698.753422461157
4.65
1.913e-05
5.238e-08
d
yr
n .2119201028471993 2.3865e-09 deg/d
Q 3.257674428028351 2.4457e-08 au
  Orbit Determination Parameters
   # obs. used (total)      1280  
   data-arc span      24132 days (66.07 yr)  
   first obs. used      1949-11-21  
   last obs. used      2015-12-17  
   planetary ephem.      DE431  
   SB-pert. ephem.      SB431-BIG16  
   condition code      0  
   fit RMS      .45754  
   data source      ORB  
   producer      Otto Matic  
   solution date      2016-Jan-04 13:16:29  

Additional Information
 Earth MOID = 1.33207 au 
 Jupiter MOID = 2.26364 au 
 T_jup = 3.288 
[ show covariance matrix ]

Ephemeris | Orbit Diagram | Orbital Elements | Physical Parameters | Discovery Circumstances | Close-Approach Data ]

Physical Parameter Table
Parameter Symbol Value Units Sigma Reference Notes
absolute magnitude H 12.3 mag n/a MPO319224  
rotation period rot_per 8. h n/a LCDB (Rev. 2015-December); Warner et al., 2009 lower-limit; Result based on fragmentary lightcurve(s), may be completely wrong.
Published Reference List:
[Behrend, R. (2006) Observatoire de Geneve web site, http://obswww.unige.ch/~behrend/page_cou.html]

11065 (1991 XE2)          Discovered 1991-Dec-01 by Holt, H. E. at Palomar
Reference: 19990728/Numbers.arcLast Updated: 2004-04-19

[ show close-approach data ]
Alternate Designations
 1991 XE2 = 1949 WM1 = 1951 EF1 = 1986 VG4 = 1999 KF14 
Ephemeris | Orbit Diagram | Orbital Elements | Physical Parameters | Discovery Circumstances | Close-Approach Data ]
ABOUT SSD CREDITS/AWARDS PRIVACY/COPYRIGHT GLOSSARY LINKS
FirstGov 2016-Feb-10 08:45 UT
(server date/time)  
NASA Home Page
Site Manager:   Ryan S. Park
Webmaster  Alan B. Chamberlin